Time,TemperatureF,DewpointF,PressureIn,WindDirection,WindDirectionDegrees,WindSpeedMPH,WindSpeedGustMPH,Humidity,HourlyPrecipIn,Conditions,Clouds,dailyrainin,SoftwareType,DateUTC
2013-07-16 00:10:00,68.4,68.1,29.92,East,90,4.2,-999.0,99,-99.99,,,0.00,Acu-Link.com,2013-07-16 05:10:00,
2013-07-16 00:25:00,68.5,68.2,29.92,ESE,112,4.7,-999.0,99,-99.99,,,0.00,Acu-Link.com,2013-07-16 05:25:00,
2013-07-16 00:40:00,68.7,68.4,29.92,East,90,5.3,-999.0,99,-99.99,,,0.00,Acu-Link.com,2013-07-16 05:40:00,
2013-07-16 00:55:00,68.7,68.4,29.93,ESE,112,4.2,-999.0,99,-99.99,,,0.00,Acu-Link.com,2013-07-16 05:55:00,
2013-07-16 01:10:00,68.9,68.6,29.93,East,90,4.7,-999.0,99,-99.99,,,0.00,Acu-Link.com,2013-07-16 06:10:00,
2013-07-16 01:26:00,69.1,68.8,29.93,SE,135,6.3,-999.0,99,-99.99,,,0.00,Acu-Link.com,2013-07-16 06:26:00,
2013-07-16 01:41:00,69.1,68.8,29.93,ESE,112,3.7,-999.0,99,-99.99,,,0.00,Acu-Link.com,2013-07-16 06:41:00,
2013-07-16 01:56:00,69.1,68.8,29.93,East,90,3.7,-999.0,99,-99.99,,,0.00,Acu-Link.com,2013-07-16 06:56:00,
2013-07-16 02:11:00,69.3,69.0,29.93,ESE,112,3.2,-999.0,99,-99.99,,,0.00,Acu-Link.com,2013-07-16 07:11:00,
2013-07-16 02:26:00,69.3,69.0,29.92,ESE,112,3.7,-999.0,99,-99.99,,,0.00,Acu-Link.com,2013-07-16 07:26:00,
2013-07-16 02:41:00,69.4,69.1,29.92,ESE,112,3.2,-999.0,99,-99.99,,,0.00,Acu-Link.com,2013-07-16 07:41:00,
2013-07-16 02:57:00,69.6,69.3,29.92,ESE,112,3.2,-999.0,99,-99.99,,,0.00,Acu-Link.com,2013-07-16 07:57:00,
2013-07-16 03:12:00,69.8,69.5,29.92,ESE,112,2.2,-999.0,99,-99.99,,,0.00,Acu-Link.com,2013-07-16 08:12:00,
2013-07-16 03:27:00,69.8,69.5,29.92,East,90,2.7,-999.0,99,-99.99,,,0.00,Acu-Link.com,2013-07-16 08:27:00,
2013-07-16 03:43:00,69.8,69.5,29.92,ESE,112,2.7,-999.0,99,-99.99,,,0.00,Acu-Link.com,2013-07-16 08:43:00,
2013-07-16 03:58:00,70.0,69.7,29.92,East,90,2.7,-999.0,99,-99.99,,,0.00,Acu-Link.com,2013-07-16 08:58:00,
2013-07-16 04:13:00,70.2,69.9,29.92,ESE,112,2.7,-999.0,99,-99.99,,,0.00,Acu-Link.com,2013-07-16 09:13:00,
2013-07-16 04:28:00,70.2,69.9,29.92,East,90,2.7,-999.0,99,-99.99,,,0.00,Acu-Link.com,2013-07-16 09:28:00,
2013-07-16 04:43:00,70.3,70.0,29.91,ESE,112,2.7,-999.0,99,-99.99,,,0.00,Acu-Link.com,2013-07-16 09:43:00,
2013-07-16 04:58:00,70.3,70.0,29.92,ESE,112,2.2,-999.0,99,-99.99,,,0.00,Acu-Link.com,2013-07-16 09:58:00,
2013-07-16 05:14:00,70.5,70.2,29.92,ESE,112,2.7,-999.0,99,-99.99,,,0.00,Acu-Link.com,2013-07-16 10:14:00,
2013-07-16 05:29:00,70.5,70.2,29.92,ESE,112,2.7,-999.0,99,-99.99,,,0.00,Acu-Link.com,2013-07-16 10:29:00,
2013-07-16 05:44:00,70.7,70.4,29.93,East,90,3.2,-999.0,99,-99.99,,,0.00,Acu-Link.com,2013-07-16 10:44:00,
2013-07-16 05:59:00,70.7,70.4,29.93,ESE,112,3.7,-999.0,99,-99.99,,,0.00,Acu-Link.com,2013-07-16 10:59:00,
2013-07-16 06:15:00,70.9,70.6,29.93,East,90,5.8,-999.0,99,-99.99,,,0.00,Acu-Link.com,2013-07-16 11:15:00,
2013-07-16 06:30:00,70.9,70.6,29.94,ESE,112,4.2,-999.0,99,-99.99,,,0.00,Acu-Link.com,2013-07-16 11:30:00,
2013-07-16 06:45:00,70.9,70.6,29.94,ESE,112,4.7,-999.0,99,-99.99,,,0.00,Acu-Link.com,2013-07-16 11:45:00,
2013-07-16 07:00:00,71.1,70.8,29.95,East,90,4.2,-999.0,99,-99.99,,,0.00,Acu-Link.com,2013-07-16 12:00:00,
2013-07-16 07:16:00,71.1,70.8,29.96,East,90,4.2,-999.0,99,-99.99,,,0.00,Acu-Link.com,2013-07-16 12:16:00,
2013-07-16 07:31:00,71.2,70.9,29.96,ESE,112,3.7,-999.0,99,-99.99,,,0.00,Acu-Link.com,2013-07-16 12:31:00,
2013-07-16 07:46:00,71.4,71.1,29.96,ESE,112,3.7,-999.0,99,-99.99,,,0.02,Acu-Link.com,2013-07-16 12:46:00,
2013-07-16 08:01:00,71.8,71.5,29.97,East,90,4.7,-999.0,99,-99.99,,,0.04,Acu-Link.com,2013-07-16 13:01:00,
2013-07-16 08:16:00,72.0,71.7,29.98,ESE,112,4.7,-999.0,99,-99.99,,,0.04,Acu-Link.com,2013-07-16 13:16:00,
2013-07-16 08:32:00,72.5,72.2,29.97,ESE,112,4.7,-999.0,99,-99.99,,,0.04,Acu-Link.com,2013-07-16 13:32:00,
2013-07-16 08:47:00,72.7,72.4,29.98,ESE,112,4.7,-999.0,99,-99.99,,,0.04,Acu-Link.com,2013-07-16 13:47:00,
2013-07-16 09:02:00,73.0,72.7,29.98,ESE,112,3.2,-999.0,99,-99.99,,,0.04,Acu-Link.com,2013-07-16 14:02:00,
2013-07-16 09:17:00,74.3,74.0,29.98,East,90,3.7,-999.0,99,-99.99,,,0.04,Acu-Link.com,2013-07-16 14:17:00,
2013-07-16 09:32:00,74.3,74.0,29.99,ESE,112,4.2,-999.0,99,-99.99,,,0.04,Acu-Link.com,2013-07-16 14:32:00,
2013-07-16 09:48:00,74.1,73.8,29.99,ESE,112,3.2,-999.0,99,-99.99,,,0.04,Acu-Link.com,2013-07-16 14:48:00,
2013-07-16 10:03:00,75.6,75.3,29.98,East,90,4.2,-999.0,99,-99.99,,,0.04,Acu-Link.com,2013-07-16 15:03:00,
2013-07-16 10:18:00,77.4,76.2,29.98,ESE,112,5.3,-999.0,96,-99.99,,,0.04,Acu-Link.com,2013-07-16 15:18:00,
2013-07-16 10:33:00,77.4,75.2,29.98,ESE,112,4.7,-999.0,93,-99.99,,,0.04,Acu-Link.com,2013-07-16 15:33:00,
2013-07-16 10:48:00,78.3,75.4,29.99,SSE,157,5.3,-999.0,91,-99.99,,,0.04,Acu-Link.com,2013-07-16 15:48:00,
2013-07-16 11:03:00,78.8,76.3,29.99,East,90,4.7,-999.0,92,-99.99,,,0.04,Acu-Link.com,2013-07-16 16:03:00,
2013-07-16 11:19:00,78.8,75.3,29.99,ESE,112,3.7,-999.0,89,-99.99,,,0.04,Acu-Link.com,2013-07-16 16:19:00,
2013-07-16 11:34:00,80.4,74.7,29.98,ESE,112,4.2,-999.0,83,-99.99,,,0.04,Acu-Link.com,2013-07-16 16:34:00,
2013-07-16 11:49:00,80.8,74.8,29.99,ESE,112,4.2,-999.0,82,-99.99,,,0.04,Acu-Link.com,2013-07-16 16:49:00,
2013-07-16 12:04:00,80.8,74.8,29.97,ENE,67,3.7,-999.0,82,-99.99,,,0.04,Acu-Link.com,2013-07-16 17:04:00,
2013-07-16 12:19:00,81.3,73.8,29.98,ENE,67,4.2,-999.0,78,-99.99,,,0.04,Acu-Link.com,2013-07-16 17:19:00,
2013-07-16 12:34:00,82.4,72.9,29.98,ENE,67,5.8,-999.0,73,-99.99,,,0.04,Acu-Link.com,2013-07-16 17:34:00,
2013-07-16 12:50:00,82.4,72.9,29.98,East,90,4.2,-999.0,73,-99.99,,,0.04,Acu-Link.com,2013-07-16 17:50:00,
2013-07-16 13:05:00,84.7,72.1,29.97,ESE,112,5.8,-999.0,66,-99.99,,,0.04,Acu-Link.com,2013-07-16 18:05:00,
2013-07-16 13:20:00,85.6,70.6,29.97,NE,45,5.8,-999.0,61,-99.99,,,0.04,Acu-Link.com,2013-07-16 18:20:00,
2013-07-16 13:35:00,88.5,70.8,29.96,ESE,112,6.3,-999.0,56,-99.99,,,0.04,Acu-Link.com,2013-07-16 18:35:00,
2013-07-16 13:51:00,87.8,70.1,29.95,NNE,22,5.3,-999.0,56,-99.99,,,0.04,Acu-Link.com,2013-07-16 18:51:00,
2013-07-16 14:06:00,85.3,69.3,29.95,ESE,112,5.8,-999.0,59,-99.99,,,0.04,Acu-Link.com,2013-07-16 19:06:00,
2013-07-16 14:21:00,85.8,70.3,29.95,NE,45,6.8,-999.0,60,-99.99,,,0.04,Acu-Link.com,2013-07-16 19:21:00,
2013-07-16 14:36:00,87.4,70.3,29.94,ESE,112,6.3,-999.0,57,-99.99,,,0.04,Acu-Link.com,2013-07-16 19:36:00,
2013-07-16 14:51:00,86.2,69.1,29.94,ESE,112,6.3,-999.0,57,-99.99,,,0.04,Acu-Link.com,2013-07-16 19:51:00,
2013-07-16 15:06:00,84.0,70.9,29.95,East,90,6.3,-999.0,65,-99.99,,,0.04,Acu-Link.com,2013-07-16 20:06:00,
2013-07-16 15:21:00,79.9,72.8,29.95,SE,135,4.2,-999.0,79,-99.99,,,0.05,Acu-Link.com,2013-07-16 20:21:00,
2013-07-16 15:37:00,80.4,74.0,29.95,East,90,4.7,-999.0,81,-99.99,,,0.05,Acu-Link.com,2013-07-16 20:37:00,
2013-07-16 15:52:00,83.5,71.8,29.95,East,90,3.7,-999.0,68,-99.99,,,0.05,Acu-Link.com,2013-07-16 20:52:00,
2013-07-16 16:07:00,85.6,71.5,29.94,ENE,67,5.8,-999.0,63,-99.99,,,0.05,Acu-Link.com,2013-07-16 21:07:00,
2013-07-16 16:22:00,85.5,70.5,29.93,ESE,112,3.7,-999.0,61,-99.99,,,0.05,Acu-Link.com,2013-07-16 21:22:00,
2013-07-16 16:37:00,86.0,70.0,29.93,NE,45,4.2,-999.0,59,-99.99,,,0.05,Acu-Link.com,2013-07-16 21:37:00,
2013-07-16 16:53:00,85.3,69.8,29.93,ESE,112,3.7,-999.0,60,-99.99,,,0.05,Acu-Link.com,2013-07-16 21:53:00,
2013-07-16 17:08:00,85.8,69.3,29.92,East,90,3.7,-999.0,58,-99.99,,,0.05,Acu-Link.com,2013-07-16 22:08:00,
2013-07-16 17:23:00,85.5,71.0,29.93,East,90,5.8,-999.0,62,-99.99,,,0.05,Acu-Link.com,2013-07-16 22:23:00,
2013-07-16 17:39:00,82.4,71.2,29.93,ENE,67,5.8,-999.0,69,-99.99,,,0.05,Acu-Link.com,2013-07-16 22:39:00,
2013-07-16 17:54:00,79.2,71.3,29.94,SE,135,2.7,-999.0,77,-99.99,,,0.05,Acu-Link.com,2013-07-16 22:54:00,
2013-07-16 18:09:00,78.3,73.1,29.92,East,90,1.7,-999.0,84,-99.99,,,0.05,Acu-Link.com,2013-07-16 23:09:00,
2013-07-16 18:24:00,76.5,73.0,29.92,East,90,2.2,-999.0,89,-99.99,,,0.06,Acu-Link.com,2013-07-16 23:24:00,
2013-07-16 18:39:00,77.0,73.8,29.92,WNW,292,0.0,-999.0,90,-99.99,,,0.06,Acu-Link.com,2013-07-16 23:39:00,
2013-07-16 18:55:00,76.6,74.1,29.94,SSW,202,2.7,-999.0,92,-99.99,,,0.06,Acu-Link.com,2013-07-16 23:55:00,
2013-07-16 19:10:00,76.6,73.4,29.95,SW,225,1.7,-999.0,90,-99.99,,,0.06,Acu-Link.com,2013-07-17 00:10:00,
2013-07-16 19:25:00,76.8,73.0,29.95,NE,45,0.0,-999.0,88,-99.99,,,0.06,Acu-Link.com,2013-07-17 00:25:00,
2013-07-16 19:40:00,75.4,70.6,29.98,ESE,112,10.4,-999.0,85,-99.99,,,0.06,Acu-Link.com,2013-07-17 00:40:00,
2013-07-16 19:55:00,73.9,70.1,29.99,ESE,112,6.3,-999.0,88,-99.99,,,0.06,Acu-Link.com,2013-07-17 00:55:00,
2013-07-16 20:10:00,73.0,69.9,30.00,East,90,6.8,-999.0,90,-99.99,,,0.06,Acu-Link.com,2013-07-17 01:10:00,
2013-07-16 20:25:00,72.9,70.8,30.00,East,90,6.3,-999.0,93,-99.99,,,0.06,Acu-Link.com,2013-07-17 01:25:00,
2013-07-16 20:40:00,72.7,71.2,30.00,East,90,4.7,-999.0,95,-99.99,,,0.06,Acu-Link.com,2013-07-17 01:40:00,
2013-07-16 20:56:00,72.3,71.1,30.00,East,90,4.7,-999.0,96,-99.99,,,0.06,Acu-Link.com,2013-07-17 01:56:00,
2013-07-16 21:11:00,72.3,71.1,30.00,East,90,4.7,-999.0,96,-99.99,,,0.06,Acu-Link.com,2013-07-17 02:11:00,
2013-07-16 21:26:00,72.3,71.4,30.00,East,90,8.3,-999.0,97,-99.99,,,0.06,Acu-Link.com,2013-07-17 02:26:00,
2013-07-16 21:41:00,72.1,71.2,30.00,East,90,5.3,-999.0,97,-99.99,,,0.06,Acu-Link.com,2013-07-17 02:41:00,
2013-07-16 21:56:00,71.8,70.9,30.00,ENE,67,4.2,-999.0,97,-99.99,,,0.06,Acu-Link.com,2013-07-17 02:56:00,
2013-07-16 22:11:00,71.6,71.3,30.00,East,90,4.2,-999.0,99,-99.99,,,0.06,Acu-Link.com,2013-07-17 03:11:00,
2013-07-16 22:27:00,71.4,71.1,30.01,East,90,3.7,-999.0,99,-99.99,,,0.07,Acu-Link.com,2013-07-17 03:27:00,
2013-07-16 22:42:00,71.4,71.1,30.01,East,90,2.7,-999.0,99,-99.99,,,0.08,Acu-Link.com,2013-07-17 03:42:00,
2013-07-16 22:57:00,71.4,71.1,30.02,ENE,67,4.2,-999.0,99,-99.99,,,0.09,Acu-Link.com,2013-07-17 03:57:00,
2013-07-16 23:12:00,71.4,71.1,30.03,East,90,3.2,-999.0,99,-99.99,,,0.09,Acu-Link.com,2013-07-17 04:12:00,
2013-07-16 23:27:00,71.2,70.9,30.03,East,90,2.7,-999.0,99,-99.99,,,0.09,Acu-Link.com,2013-07-17 04:27:00,
2013-07-16 23:43:00,71.1,70.8,30.03,ESE,112,1.7,-999.0,99,-99.99,,,0.09,Acu-Link.com,2013-07-17 04:43:00,
2013-07-16 23:58:00,71.1,70.8,30.03,East,90,2.2,-999.0,99,-99.99,,,0.09,Acu-Link.com,2013-07-17 04:58:00,